Flag for Switzerland Weather past 2 weeks in Solothurn, Solothurn, Switzerland

Now
53 °F

Cool.


Feels Like: 47 °F
Forecast: 40 / 44 °F
Wind: 25 mph from West

Location: Grenchen

Current Time: Mar 31, 2015 at 7:44:26 PM

Latest Report: Mar 31, 2015 at 7:00 PM


Visibility: N/A

Pressure: 29.98 "Hg

Humidity: 59%

Dew point: 39 °F

Location of SolothurnLocation

Historic Weather in Solothurn — Graph

°F

Solothurn temperature yesterday

Maximum temperature yesterday: 55 °F (at 3:00 PM)
Minimum temperature yesterday: 47 °F (at 8:00 AM)
Average temperature yesterday: 50 °F

Past Weeks' High & Low Weather Summary

 TemperatureHumidityPressure
High64 °F (Mar 18, 4:00 PM)100% (Mar 24, 3:00 AM)30.36 "Hg (Mar 24, 3:00 AM)
Low29 °F (Mar 28, 6:00 AM)35% (Mar 17, 4:00 PM)29.62 "Hg (Mar 25, 1:00 PM)
Average46 °F77%30.04 "Hg
* Reported Mar 16 5:00 PM — Mar 31 6:00 PM, Solothurn, Weather by CustomWeather, © 2015

Note: Actual official high and low records may vary slightly from our data, if they occured in-between our weather recording intervals... More about our weather records

Advertising

Solothurn weather history for previous 24 hours

 ConditionsComfort  
Time TempWeatherWind HumidityBarometerVisibility
6:00 PM
Tue, Mar 31
54 °FCool.25 mph61%29.95 "HgN/A
5:00 PM53 °FCool.26 mph73%29.93 "HgN/A
4:00 PM52 °FCool.26 mph80%29.93 "HgN/A
3:00 PM53 °FCool.21 mph77%29.95 "HgN/A
2:00 PM54 °FCool.32 mph68%29.93 "HgN/A
1:00 PM53 °FCool.28 mph80%29.93 "HgN/A
12:00 PM54 °FCool.29 mph73%29.92 "HgN/A
11:00 AM55 °FCool.30 mph71%29.91 "HgN/A
10:00 AM56 °FCool.26 mph70%29.90 "HgN/A
9:00 AM53 °FCool.20 mph79%29.93 "HgN/A
8:00 AM52 °FCool.20 mph83%29.93 "HgN/A
7:00 AM51 °FCool.22 mph90%29.91 "HgN/A
6:00 AM50 °FCool.26 mph93%29.93 "HgN/A
5:00 AM50 °FCool.23 mph93%29.95 "HgN/A
4:00 AM50 °FCool.20 mph91%29.97 "HgN/A
3:00 AM49 °FCool.12 mph91%30.01 "HgN/A
2:00 AM48 °FCool.10 mph90%30.03 "HgN/A
1:00 AM49 °FCool.13 mph85%30.04 "HgN/A
12:00 AM49 °FCool.12 mph78%30.05 "HgN/A
11:00 PM
Mon, Mar 30
49 °FCool.9 mph73%30.06 "HgN/A
10:00 PM50 °FCool.15 mph72%30.06 "HgN/A
9:00 PM51 °FCool.17 mph69%30.04 "HgN/A
8:00 PM50 °FCool.14 mph74%30.01 "HgN/A
7:00 PM52 °FCool.14 mph71%30.00 "HgN/A
Weather by CustomWeather, © 2015

See weather overviewHow to use our weather pages